Theta_e
343 343 341 341 341 338 339 340 341 341 340 338 339 338 338 337 336 336 336 338 339 340 342 340 339 337 336 333 333 334 333 332 332 335 336 337 337 336 334 333 333 333 334
342 343 341 342 341 339 338 338 340 341 341 339 339 339 338 337 337 336 336 339 340 341 341 338 338 337 332 333 334 334 334 332 332 336 336 335 334 333 332 330 330 330 330
343 343 339 339 341 339 337 338 338 340 340 339 337 337 338 338 337 336 336 338 339 341 340 338 338 337 332 334 334 333 333 332 333 336 336 334 332 331 331 329 325 325 325
342 343 341 341 341 341 340 338 338 338 339 339 338 337 337 338 336 335 336 337 338 339 338 339 337 334 333 332 331 331 331 330 334 335 333 332 330 329 328 326 323 322 322
341 342 342 340 340 340 339 337 338 337 338 338 338 337 337 336 335 336 336 337 337 338 339 338 336 333 329 326 321 321 326 331 332 332 330 329 328 327 324 322 321 321 321
341 341 342 340 338 339 339 338 338 337 337 337 337 336 336 335 335 336 337 337 338 339 337 335 333 328 322 321 324 325 328 331 331 330 328 326 324 323 322 321 320 320 320
341 341 341 337 336 337 337 337 338 337 336 336 336 335 335 336 337 337 338 338 337 336 334 332 324 321 322 322 326 328 329 328 327 325 323 321 321 321 321 320 320 320 319
340 341 340 340 338 337 338 336 337 337 336 336 335 335 336 337 337 338 337 335 334 332 329 322 322 320 315 312 313 317 318 317 319 317 319 317 320 320 320 320 320 319 318
340 339 337 337 338 337 337 336 336 336 336 336 336 335 337 337 338 337 335 332 328 324 323 323 318 311 306 305 305 307 312 312 313 316 318 318 319 320 320 319 319 318 317
333 335 333 335 335 335 336 335 335 336 335 335 336 336 338 337 336 334 329 327 325 325 323 315 308 304 303 303 303 304 309 310 313 316 316 319 320 319 318 320 318 317 315
318 325 333 333 335 335 334 333 333 332 333 333 334 336 337 334 332 327 326 325 324 321 313 306 303 302 301 301 303 308 309 311 316 316 317 318 319 317 319 320 318 315 317
311 316 329 332 333 333 332 326 329 327 324 324 323 321 331 331 327 325 323 322 318 311 305 302 303 306 306 304 306 307 310 314 316 316 317 317 316 320 319 319 316 316 316
308 310 314 331 333 332 329 324 323 322 323 323 321 322 322 324 324 323 321 315 307 304 302 305 305 305 305 305 306 308 311 314 314 315 316 316 319 318 321 318 315 316 314
306 307 309 312 325 328 324 324 323 324 325 323 320 321 323 321 321 318 313 310 307 307 306 305 303 303 304 305 308 310 312 314 313 313 314 315 319 319 320 317 317 316 314
304 306 307 308 313 329 326 323 323 322 323 322 321 321 321 319 318 314 312 307 306 306 305 304 304 304 306 308 309 310 311 311 311 311 311 313 315 318 319 318 316 316 314
303 304 306 309 311 319 329 325 324 324 324 323 322 322 323 322 314 311 308 306 306 306 306 305 305 305 307 308 308 308 309 310 309 309 309 310 312 313 313 314 314 313 313
302 304 306 309 312 316 327 327 326 324 323 323 323 323 323 321 320 312 308 305 305 305 305 305 305 306 306 306 306 306 306 305 306 307 307 307 309 310 310 309 309 309 311
302 304 306 310 316 322 324 328 327 327 323 323 324 324 323 321 320 321 317 311 306 302 304 304 305 306 306 304 303 303 302 302 302 304 304 303 303 306 306 305 303 305 307
302 304 307 312 316 324 324 325 326 327 325 323 323 324 323 322 321 319 315 309 304 303 303 304 305 306 305 304 303 302 301 300 299 299 298 298 298 298 300 296 296 299 303
302 303 305 308 314 320 323 323 322 323 323 322 321 321 321 319 316 316 314 308 304 302 302 303 305 306 304 303 303 302 301 300 299 298 298 297 297 297 297 297 296 296 298
301 301 302 304 310 315 320 320 319 319 318 318 318 318 318 317 315 313 309 304 302 302 303 301 304 305 303 303 302 302 301 300 299 299 298 297 297 296 296 296 296 296 296
299 300 300 301 304 311 314 316 318 317 316 315 315 315 315 314 312 310 308 303 303 301 300 301 302 304 303 303 305 304 302 300 299 299 298 297 297 296 296 296 295 295 295
296 298 299 299 301 306 311 313 314 315 314 312 312 312 311 310 310 307 305 302 299 299 299 300 301 303 302 304 304 305 305 305 300 299 298 297 297 296 296 295 295 294 295
294 295 296 297 298 301 307 308 309 309 310 309 310 310 309 309 309 307 306 305 304 303 303 305 302 300 302 302 302 303 303 304 302 299 298 297 296 296 296 295 295 294 294
292 293 293 294 296 297 299 303 304 306 306 306 307 307 307 307 308 308 308 308 307 305 302 300 298 300 301 303 303 302 301 301 302 302 298 297 296 296 295 295 295 294 293
291 292 291 292 292 294 295 297 300 302 304 304 305 305 304 305 305 305 306 305 303 301 299 299 299 300 300 301 302 302 301 301 301 301 299 297 297 295 295 295 295 294 293
Wind_Speed
1 9 11 9 7 6 8 9 8 7 9 11 10 9 10 10 9 9 11 11 11 13 14 12 12 12 11 11 11 11 11 11 11 11 13 15 18 17 16 17 17 17 17
2 7 11 9 7 5 7 8 9 8 8 10 11 12 10 10 9 8 9 11 13 13 13 13 11 10 9 10 9 10 10 11 11 12 13 16 15 16 15 14 15 15 15
6 6 8 9 6 5 6 8 9 10 9 9 11 12 12 10 9 8 9 10 12 14 13 13 11 9 8 8 8 9 10 11 11 7 13 14 14 13 14 14 14 14 15
4 4 5 6 6 6 8 8 9 10 10 9 10 12 12 11 9 8 9 10 11 13 13 14 11 9 8 8 8 8 10 11 11 12 12 13 13 10 11 12 15 15 14
1 3 5 4 6 7 7 9 10 10 10 10 10 11 12 12 10 10 9 10 12 13 14 16 9 8 8 7 8 9 11 10 10 9 8 8 8 11 12 13 14 15 15
4 3 0 5 6 6 6 8 10 11 11 11 11 11 11 11 11 11 11 12 14 18 14 11 11 9 8 8 10 12 12 9 11 6 5 6 7 10 12 13 14 14 15
6 4 5 8 8 6 4 8 11 11 12 11 12 12 13 13 13 13 15 18 17 14 12 11 11 10 8 8 9 11 11 12 12 14 11 10 12 11 12 13 13 14 14
7 7 6 8 8 7 11 8 13 12 12 12 12 14 14 16 16 17 17 16 13 11 12 12 11 10 9 9 10 10 11 12 10 10 9 12 12 11 12 12 12 13 13
8 9 10 7 7 8 7 12 11 10 12 12 14 16 17 17 18 19 16 14 13 14 13 12 10 10 10 9 10 11 11 12 11 12 13 14 12 11 11 11 11 12 14
13 14 13 10 8 7 8 11 10 8 9 13 16 20 20 21 19 14 16 16 16 15 13 11 10 8 8 8 10 13 13 13 11 9 12 14 10 10 11 12 11 13 14
22 21 16 8 6 5 7 8 9 13 7 5 11 20 23 22 18 16 16 16 15 13 12 10 10 10 9 10 13 13 13 12 13 14 15 11 10 10 11 13 12 13 14
22 22 18 14 10 6 4 11 9 12 17 14 22 36 14 22 19 19 18 17 15 12 11 11 14 14 12 11 12 12 14 13 13 16 13 11 10 11 11 13 14 13 14
17 17 18 16 14 8 5 5 7 8 15 16 25 37 28 18 18 17 16 13 11 11 12 11 10 11 11 10 12 15 15 10 11 15 12 12 11 12 11 13 11 12 12
17 17 18 15 14 8 7 7 5 7 10 7 14 11 13 6 15 15 12 11 11 10 11 9 10 11 12 14 14 15 13 15 14 14 12 12 16 10 12 12 12 13 12
18 18 20 17 15 15 9 2 2 3 5 1 8 7 4 4 14 9 8 7 8 9 9 12 12 13 15 15 15 14 15 14 10 12 11 9 12 17 15 14 13 13 13
19 19 20 18 13 14 10 9 6 4 3 3 2 5 9 4 7 12 11 7 8 8 10 11 13 13 16 16 16 14 13 13 15 9 11 9 9 11 19 16 14 14 13
20 20 19 18 15 12 9 12 9 9 7 8 5 9 10 6 2 10 12 13 9 7 8 12 14 14 14 14 15 14 13 12 14 14 11 9 6 6 5 7 13 12 13
19 20 18 17 15 10 9 10 11 14 12 12 10 10 9 6 6 6 8 9 9 10 4 7 12 14 14 14 15 12 11 11 10 10 9 9 8 7 6 5 8 11 12
19 20 19 17 13 7 4 6 11 10 14 15 14 14 15 15 13 13 13 14 16 15 9 9 10 13 16 16 15 14 11 11 9 8 8 8 7 6 7 5 6 9 12
18 18 19 16 10 8 3 2 5 7 9 10 13 13 17 16 16 15 13 14 15 14 12 9 13 11 13 16 15 13 10 9 9 8 7 7 8 6 6 6 5 8 10
20 21 20 18 13 13 4 4 4 4 4 4 6 9 15 16 15 13 13 16 16 14 13 14 16 16 14 15 15 11 9 7 6 7 6 6 6 6 5 5 4 4 5
20 21 22 21 17 13 11 7 3 2 2 3 4 6 9 13 13 12 14 16 17 17 17 17 17 17 11 15 3 9 3 4 4 4 4 4 4 4 4 5 5 5 3
22 21 20 21 21 16 12 9 7 4 5 3 4 5 9 11 12 13 15 16 17 17 18 17 15 9 8 12 6 2 2 2 5 4 3 2 3 1 3 4 4 4 4
20 20 20 19 22 22 15 14 14 11 6 6 1 4 6 8 9 11 12 14 15 15 15 12 10 10 6 7 7 6 2 3 2 1 3 4 4 2 2 3 3 4 3
18 20 20 21 23 22 23 19 18 19 14 9 6 4 5 6 6 8 9 11 14 14 13 13 10 10 8 4 5 4 5 3 3 1 2 4 4 5 3 2 2 3 1
17 18 20 22 23 23 24 24 22 20 17 17 13 10 5 3 4 5 7 9 11 12 13 14 14 12 9 7 6 6 5 3 3 4 2 3 4 4 3 2 2 1 3
Wind_Direction
303 152 164 176 177 185 182 183 173 166 178 187 183 177 173 167 158 153 148 143 137 130 126 119 113 107 100 98 93 89 92 90 84 82 81 74 68 61 67 69 58 55 51
95 131 173 179 179 195 195 195 187 180 178 182 187 186 187 179 168 163 158 150 144 136 132 122 118 117 107 102 97 93 97 97 88 87 78 82 66 56 54 58 54 46 44
124 126 167 182 190 206 216 208 202 190 185 180 183 186 182 183 177 166 164 158 152 145 133 127 121 114 115 108 103 99 98 97 90 79 85 64 62 51 49 44 45 48 46
98 105 180 178 190 212 226 221 214 208 198 191 188 186 182 182 180 177 166 162 156 149 137 133 132 121 122 114 105 102 101 103 69 101 91 81 58 43 44 45 46 51 53
349 129 172 210 213 216 233 232 219 214 211 205 197 192 191 188 183 178 172 168 162 156 142 148 127 131 126 115 106 105 109 105 83 94 79 58 53 48 47 48 55 57 59
331 305 177 237 239 215 226 239 228 216 213 211 208 203 198 188 179 170 161 157 145 144 135 130 139 138 129 118 114 112 113 85 113 53 30 53 57 58 58 59 58 61 62
334 277 296 262 232 224 227 245 238 220 217 213 210 205 194 183 175 164 150 150 138 137 136 135 136 132 124 118 117 118 115 89 83 88 89 66 66 60 62 62 66 66 60
343 316 290 267 259 257 231 243 236 221 221 216 207 203 190 179 170 160 157 145 142 138 136 134 133 127 120 116 113 112 107 89 90 63 61 73 72 65 65 66 71 65 68
326 331 325 299 303 280 268 251 247 238 226 224 209 195 185 176 168 161 155 144 136 135 133 131 130 125 120 115 110 109 104 84 92 82 75 77 73 71 70 65 73 72 69
343 353 347 336 323 307 292 264 246 235 241 231 212 193 182 172 166 158 139 139 134 135 133 131 123 114 110 111 105 103 97 87 85 87 77 79 74 72 70 78 76 72 69
4 4 349 343 297 276 278 30 53 47 22 330 243 211 180 167 156 145 149 142 138 138 135 124 109 95 92 103 102 98 100 92 95 86 89 81 80 68 77 78 78 73 72
357 358 5 349 326 318 65 28 52 23 22 11 355 353 176 154 150 151 148 145 140 137 127 113 100 90 81 89 94 102 100 96 102 97 94 90 76 82 79 81 76 73 71
351 334 1 353 337 333 324 316 327 323 287 347 345 345 344 138 151 145 145 137 122 113 110 104 109 120 121 108 101 100 100 99 98 102 101 98 86 86 97 83 76 74 67
352 342 335 335 342 314 312 317 286 246 219 332 8 17 346 5 116 128 126 136 127 137 129 128 116 108 107 103 105 108 104 100 112 110 106 104 80 86 95 85 80 70 68
350 343 337 338 341 315 284 261 241 238 252 189 61 68 334 187 126 133 132 130 131 137 133 123 117 111 105 102 101 108 107 96 101 119 116 119 110 72 86 84 77 70 64
341 338 339 336 330 330 285 252 222 199 170 167 126 104 121 86 157 138 121 114 113 128 125 120 116 114 112 115 111 108 109 107 98 108 118 128 136 105 69 68 66 59 55
339 334 339 341 329 323 292 252 241 219 182 165 159 150 119 87 305 181 165 129 112 105 125 133 124 119 119 114 110 113 112 115 114 104 102 113 152 152 132 101 62 50 49
344 340 342 342 347 320 286 224 221 227 203 192 175 173 167 181 199 216 203 168 128 106 82 120 120 118 111 106 103 100 106 113 121 134 139 138 143 164 157 131 81 61 54
355 346 349 357 353 346 271 232 207 210 214 216 211 199 194 190 196 180 185 164 155 142 169 145 125 128 126 116 108 103 99 102 109 109 106 113 115 94 131 108 62 62 61
8 1 0 354 359 15 126 188 168 193 218 216 222 218 200 196 195 180 177 169 159 160 161 144 136 137 135 126 118 110 107 106 106 102 106 106 95 95 92 84 46 32 52
15 12 10 3 6 31 43 99 87 119 162 187 197 216 205 201 197 181 175 163 162 178 177 168 158 142 141 145 117 106 103 105 110 110 105 97 103 90 90 85 87 83 44
18 17 15 14 14 29 44 49 77 119 150 175 175 191 207 203 196 191 185 181 182 174 174 174 166 153 166 175 141 146 143 132 127 133 143 135 108 95 78 66 66 77 55
25 19 19 19 21 31 48 63 74 83 103 94 150 172 186 193 189 188 186 185 176 178 175 168 170 171 170 198 192 157 118 151 144 162 154 154 129 129 79 50 39 54 42
27 27 26 26 26 29 44 61 69 71 67 37 192 172 179 194 188 197 201 201 199 195 197 191 187 186 176 187 202 220 137 108 149 158 178 186 180 182 114 73 12 39 20
33 33 33 32 33 31 33 50 61 66 62 57 76 123 151 174 191 209 207 209 207 201 196 186 201 218 235 213 179 173 206 190 234 128 157 185 218 206 191 168 69 347 349
36 39 39 37 38 41 42 38 47 49 62 63 57 57 61 109 168 197 207 214 209 201 199 200 207 215 220 209 204 214 180 155 191 189 131 152 156 169 197 169 144 267 310